Location: Guadanolo
(41.9167°N, 12.9333°E)
Time: 19:07:58
(UTC+00:00)

Cosmos 1544 - Pass Details

Date: 16 September 2019
Orbit: 475 x 491 km, 82.5° (Epoch: 15 October)

Event Time Altitude Azimuth Distance (km) Brightness Sun altitude
Rises 18:27:40 0° 184° (S) 2,510 6.6 -13.8°
Reaches altitude 10° 18:29:44 10° 183° (S) 1,637 5.6 -14.2°
Maximum altitude 18:33:19 81° 97° (E) 487 2.9 -14.8°
Drops below altitude 10° 18:36:55 10° 10° (N) 1,654 5.9 -15.4°
Sets 18:39:02 0° 9° (N) 2,540 6.8 -15.8°
